{"data":{"norad_id":57620,"epoch":"2026-09-19T19:06:00.217440Z","epoch_age_seconds":188492,"freshness":"STALE","line1":"1 57620U 23119U   26262.79583585  .00000713  00000+0  35443-4 0  9997","line2":"2 57620  43.0026  65.2651 0001447 263.2551  96.8136 15.27583067172773","mean_motion":15.27583067,"eccentricity":0.0001447,"inclination_deg":43.0026,"raan_deg":65.2651,"arg_perigee_deg":263.2551,"mean_anomaly_deg":96.8136,"bstar":3.5443e-5,"rev_number":17277,"period_min":94.266559449889,"perigee_km":482.04710005445,"apogee_km":484.03272465289,"semimajor_km":6861.1769123537,"source":"CELESTRAK","updated_at":"2026-09-21T09:00:33.663949Z"}}